Location: Unspecified
(43.4680°N, 87.1740°E)
Time: 21:18:38
(UTC+00:00)

Meteor 2-3 Rocket - Pass Details

Date: 17 April 2021
Orbit: 841 x 886 km, 81.2° (Epoch: 12 May)

Event Time Altitude Azimuth Distance (km) Brightness Sun altitude
Rises 15:40:29 0° 349° (NNW) 3,491 7.8 -25.9°
Reaches altitude 10° 15:42:57 10° 349° (N) 2,543 6.9 -26.2°
Maximum altitude 15:48:45 86° 262° (W) 880 3.7 -26.9°
Enters shadow 15:49:15 75° 188° (S) 903 3.6 -27.0°
